Belen, NM

3:41 PM MDT on September 21, 2017 (GMT -0600)
Belen

Weather History for KE80 - December, 2012

Change the Weather History Date:

Saturday, December 8, 2012

  Actual Average (KABQ) Record (KABQ)
Temperature  
Mean Temperature 45 °F -  
Max Temperature 64 °F 49 °F 68 °F (1977)
Min Temperature 26 °F 26 °F 5 °F (1916)
Degree Days  
Heating Degree Days 20    
Moisture  
Dew Point 20 °F    
Average Humidity 42    
Maximum Humidity 73    
Minimum Humidity 19    
Precipitation  
Precipitation 0.00 in - - ()
Sea Level Pressure  
Sea Level Pressure 29.93 in    
Wind  
Wind Speed 6 mph (West)    
Max Wind Speed 18 mph    
Max Gust Speed 28 mph    
Visibility 10 miles    
Events      
Averages and records for this station are not official NWS values.
T = Trace of Precipitation, MM = Missing Value Source: NWS Daily Summary

Daily Weather History Graph

Daily Weather History Graph

Search for Another Location

Airport or City:

Trip Planner

Search our weather history database for the weather conditions in past years. The results will help you decide how hot, cold, wet, or windy it might be!

Date:

Astronomy

Dec. 08, 2012 Rise Set
Actual Time 7:02 AM MST 4:56 PM MST
Civil Twilight 6:34 AM MST 5:24 PM MST
Nautical Twilight 6:03 AM MST 5:55 PM MST
Astronomical Twilight 5:32 AM MST 6:26 PM MST
Moon 1:40 AM MST (12/8) 1:19 PM MST (12/8)
Length of Visible Light 10h 49m
Length of Day
9h 54m
Waning Crescent, 27% of the Moon is Illuminated
Dec 8
Waning Crescent
Dec 13
New
Dec 19
First Quarter
Dec 28
Full
Jan 4
Last Quarter

Hourly Weather History & Observations

Time (MST) Temp. Windchill Dew Point Humidity Pressure Visibility Wind Dir Wind Speed Gust Speed Precip Events Conditions
12:15 AM 36.5 °F 31.8 °F 23.0 °F 58% 29.98 in 10.0 mi West 5.8 mph - N/A   Clear
12:35 AM 38.8 °F 35.4 °F 24.4 °F 56% 29.98 in 10.0 mi WNW 4.6 mph - N/A   Clear
12:55 AM 37.0 °F 32.4 °F 23.7 °F 59% 29.97 in 10.0 mi WNW 5.8 mph - N/A   Clear
1:15 AM 36.5 °F 32.7 °F 23.0 °F 58% 29.97 in 10.0 mi NW 4.6 mph - N/A   Clear
1:35 AM 36.9 °F 32.2 °F 22.8 °F 57% 29.96 in 10.0 mi North 5.8 mph - N/A   Clear
1:55 AM 34.5 °F 30.4 °F 22.6 °F 62% 29.97 in 10.0 mi North 4.6 mph - N/A   Clear
2:15 AM 32.7 °F 29.6 °F 21.2 °F 63% 29.97 in 10.0 mi SSE 3.5 mph - N/A   Clear
2:35 AM 32.7 °F - 22.6 °F 66% 29.97 in 10.0 mi Calm Calm - N/A   Clear
2:55 AM 32.0 °F - 22.1 °F 67% 29.97 in 10.0 mi Calm Calm - N/A   Clear
3:15 AM 31.1 °F - 21.7 °F 68% 29.97 in 10.0 mi Calm Calm - N/A   Clear
3:35 AM 31.6 °F - 20.5 °F 63% 29.96 in 10.0 mi Calm Calm - N/A   Clear
4:15 AM 29.7 °F - 20.5 °F 69% 29.96 in 10.0 mi Calm Calm - N/A   Clear
4:35 AM 27.5 °F - 17.6 °F 66% 29.96 in 10.0 mi Calm Calm - N/A   Clear
4:55 AM 31.6 °F 27.0 °F 21.7 °F 67% 29.95 in 10.0 mi NW 4.6 mph - N/A   Clear
5:15 AM 30.2 °F 22.6 °F 21.7 °F 71% 29.95 in 10.0 mi NW 8.1 mph - N/A   Clear
5:35 AM 30.2 °F 24.3 °F 21.9 °F 71% 29.96 in 10.0 mi NW 5.8 mph - N/A   Clear
5:55 AM 30.2 °F - 21.4 °F 70% 29.96 in 10.0 mi Calm Calm - N/A   Clear
6:15 AM 26.6 °F - 18.5 °F 71% 29.97 in 10.0 mi Calm Calm - N/A   Clear
6:35 AM 29.8 °F - 20.8 °F 69% 29.97 in 10.0 mi Calm Calm - N/A   Clear
6:55 AM 29.5 °F - 21.0 °F 71% 29.97 in 10.0 mi Calm Calm - N/A   Clear
7:15 AM 29.3 °F 25.6 °F 21.7 °F 73% 29.98 in 10.0 mi NW 3.5 mph - N/A   Clear
7:35 AM 28.6 °F 24.8 °F 20.1 °F 71% 29.98 in 10.0 mi NW 3.5 mph - N/A   Clear
7:55 AM 31.5 °F 28.1 °F 21.4 °F 66% 29.98 in 10.0 mi NW 3.5 mph - N/A   Clear
8:15 AM 35.2 °F - 23.4 °F 62% 29.99 in 10.0 mi Calm Calm - N/A   Clear
8:35 AM 38.8 °F - 24.8 °F 57% 29.99 in 10.0 mi Calm Calm - N/A   Clear
8:55 AM 41.2 °F 39.2 °F 25.5 °F 54% 29.99 in 10.0 mi NNW 3.5 mph - N/A   Clear
9:15 AM 43.5 °F 41.9 °F 25.7 °F 50% 30.00 in 10.0 mi NNE 3.5 mph - N/A   Clear
9:35 AM 45.3 °F 44.0 °F 26.2 °F 47% 30.00 in 10.0 mi NNE 3.5 mph - N/A   Clear
9:55 AM 46.4 °F 45.2 °F 26.4 °F 46% 30.00 in 10.0 mi East 3.5 mph - N/A   Clear
10:15 AM 49.3 °F - 27.1 °F 42% 30.00 in 10.0 mi Calm Calm - N/A   Clear
10:35 AM 50.2 °F - 26.6 °F 40% 29.98 in 10.0 mi SE 3.5 mph - N/A   Clear
10:55 AM 50.9 °F - 26.4 °F 39% 29.97 in 10.0 mi SSE 4.6 mph - N/A   Clear
11:15 AM 51.4 °F - 26.6 °F 38% 29.96 in 10.0 mi ESE 6.9 mph - N/A   Clear
11:35 AM 52.9 °F - 27.3 °F 37% 29.94 in 10.0 mi ESE 5.8 mph - N/A   Clear
11:55 AM 55.0 °F - 28.0 °F 35% 29.93 in 10.0 mi Calm Calm - N/A   Clear
12:15 PM 55.6 °F - 28.2 °F 35% 29.91 in 10.0 mi ENE 6.9 mph - N/A   Clear
12:35 PM 57.2 °F - 28.4 °F 33% 29.89 in 10.0 mi East 6.9 mph - N/A   Clear
12:55 PM 59.7 °F - 27.3 °F 29% 29.88 in 10.0 mi ESE 3.5 mph - N/A   Clear
1:35 PM 61.3 °F - 26.6 °F 27% 29.86 in 10.0 mi East 10.4 mph - N/A   Clear
1:55 PM 63.3 °F - 21.9 °F 21% 29.86 in 10.0 mi West 12.7 mph 23.0 mph N/A   Clear
2:15 PM 63.3 °F - 22.8 °F 21% 29.85 in 10.0 mi West 10.4 mph 20.7 mph N/A   Clear
2:35 PM 64.0 °F - 21.0 °F 19% 29.85 in 10.0 mi West 10.4 mph 20.7 mph N/A   Clear
2:55 PM 63.9 °F - 21.2 °F 20% 29.85 in 10.0 mi West 16.1 mph - N/A   Clear
3:15 PM 63.5 °F - 20.5 °F 19% 29.84 in 10.0 mi West 17.3 mph 21.9 mph N/A   Clear
3:35 PM 63.0 °F - 20.1 °F 19% 29.85 in 10.0 mi WNW 15.0 mph - N/A   Clear
3:55 PM 62.1 °F - 19.0 °F 19% 29.85 in 10.0 mi West 13.8 mph - N/A   Clear
4:15 PM 61.2 °F - 19.0 °F 20% 29.85 in 10.0 mi West 13.8 mph - N/A   Clear
4:35 PM 59.7 °F - 17.4 °F 19% 29.86 in 10.0 mi West 9.2 mph - N/A   Clear
4:55 PM 56.7 °F - 16.7 °F 21% 29.86 in 10.0 mi WSW 8.1 mph - N/A   Clear
5:15 PM 53.6 °F - 16.3 °F 23% 29.87 in 10.0 mi WSW 6.9 mph - N/A   Clear
5:35 PM 52.0 °F - 16.3 °F 24% 29.87 in 10.0 mi WSW 6.9 mph - N/A   Clear
5:55 PM 50.9 °F - 16.7 °F 26% 29.88 in 10.0 mi WSW 6.9 mph - N/A   Clear
6:15 PM 49.3 °F - 16.7 °F 27% 29.88 in 10.0 mi WSW 11.5 mph - N/A   Clear
6:55 PM 49.1 °F - 16.5 °F 27% 29.89 in 10.0 mi West 10.4 mph - N/A   Clear
7:15 PM 50.9 °F - 16.5 °F 26% 29.90 in 10.0 mi West 10.4 mph - N/A   Clear
7:35 PM 54.3 °F - 16.2 °F 22% 29.90 in 10.0 mi West 13.8 mph 20.7 mph N/A   Clear
7:55 PM 54.5 °F - 14.7 °F 21% 29.90 in 10.0 mi West 13.8 mph 27.6 mph N/A   Clear
8:15 PM 52.9 °F - 14.0 °F 21% 29.90 in 10.0 mi West 13.8 mph - N/A   Clear
8:35 PM 53.4 °F - 12.2 °F 19% 29.90 in 10.0 mi West 11.5 mph 19.6 mph N/A   Clear
8:55 PM 52.7 °F - 11.1 °F 19% 29.90 in 10.0 mi West 12.7 mph 18.4 mph N/A   Clear
9:35 PM 44.6 °F 39.2 °F 11.8 °F 27% 29.90 in 10.0 mi SW 10.4 mph - N/A   Clear
9:55 PM 45.7 °F 41.0 °F 11.3 °F 25% 29.91 in 10.0 mi WSW 9.2 mph - N/A   Clear
10:15 PM 45.5 °F 40.8 °F 11.3 °F 25% 29.91 in 10.0 mi WSW 9.2 mph - N/A   Clear
10:35 PM 45.1 °F 39.5 °F 11.3 °F 25% 29.91 in 10.0 mi WSW 11.5 mph - N/A   Clear
10:55 PM 42.3 °F 36.3 °F 11.3 °F 28% 29.92 in 10.0 mi West 10.4 mph - N/A   Clear
11:15 PM 43.3 °F 37.2 °F 11.7 °F 28% 29.91 in 10.0 mi WSW 11.5 mph - N/A   Clear
11:35 PM 46.0 °F 38.8 °F 13.6 °F 27% 29.91 in 10.0 mi WSW 18.4 mph - N/A   Clear
11:55 PM 46.8 °F - 15.3 °F 28% 29.90 in 10.0 mi WSW 17.3 mph - N/A   Clear